Theta_e
330 329 330 332 331 327 330 330 326 329 328 330 331 330 330 334 338 341 338 338 339 338 336 336 337 337 330 326 324 325 321 326 331 330 327 326 324 319 316 317 319 320 320 323 323 320 322 324 323
330 330 331 332 332 331 330 327 329 328 330 330 329 329 329 331 335 339 339 338 339 337 336 336 336 334 328 322 323 324 328 329 326 322 324 320 321 318 311 311 311 313 318 319 317 319 327 327 326
330 331 330 329 329 333 331 327 326 329 331 330 329 328 332 333 339 339 338 339 339 337 336 336 335 332 329 322 321 322 325 326 323 325 327 324 317 315 312 312 312 316 320 317 315 320 326 332 326
331 331 331 329 332 329 327 326 328 329 330 331 331 333 333 333 333 337 337 339 339 338 339 336 335 332 328 322 318 317 322 323 319 327 328 324 323 319 315 311 310 311 311 311 310 314 322 326 326
331 331 329 329 331 329 327 329 329 328 329 330 330 334 335 334 331 331 337 338 338 338 338 334 334 331 329 322 318 314 316 322 323 330 326 324 325 321 319 315 312 310 309 309 309 311 314 316 322
331 330 330 330 331 330 329 330 329 329 330 331 332 334 335 336 334 334 337 338 338 337 335 331 332 329 329 325 320 317 312 317 318 326 325 325 328 328 325 324 319 311 310 309 309 310 310 312 316
328 327 332 329 330 331 331 331 329 328 329 330 331 332 336 336 333 334 338 338 338 335 331 330 329 329 328 329 325 321 317 313 316 322 322 323 329 330 329 327 323 317 313 310 309 310 310 310 311
328 326 330 329 330 330 330 330 329 331 330 330 332 332 335 335 330 335 338 337 334 334 327 327 325 328 328 328 329 326 323 319 314 314 318 318 325 328 329 329 324 319 317 314 311 310 310 310 310
325 327 329 328 329 327 329 327 329 330 330 331 332 333 329 330 329 335 337 335 330 328 327 323 322 321 318 318 323 328 328 326 323 318 313 313 318 322 323 324 322 318 315 313 313 313 312 311 311
324 323 330 325 323 325 327 327 329 329 330 332 329 328 328 329 330 330 332 331 328 326 325 325 325 325 324 324 323 320 320 326 329 325 322 318 315 313 314 317 318 315 313 313 312 312 313 314 316
324 322 325 323 324 325 326 326 326 326 327 331 331 327 328 329 331 331 329 330 329 331 329 327 326 326 327 327 327 326 325 321 321 329 327 324 320 319 318 319 320 318 315 313 313 313 313 314 315
325 324 324 325 324 324 324 325 325 325 325 329 331 329 327 329 331 330 332 333 333 330 326 325 325 325 325 325 326 327 328 327 325 321 327 328 326 324 321 320 321 321 320 317 315 314 313 313 314
324 324 325 325 324 324 324 324 324 325 325 325 327 327 325 325 327 330 331 331 332 332 326 324 325 325 326 325 324 325 325 327 328 328 325 323 325 327 326 324 322 321 321 322 321 320 319 318 317
324 324 324 324 324 325 324 324 325 326 326 325 324 325 324 324 325 326 326 325 324 325 326 326 325 324 323 324 325 325 325 326 328 329 329 328 325 324 327 327 326 324 323 323 323 323 322 322 321
324 324 322 323 324 324 324 323 323 325 325 325 325 325 325 325 325 325 324 324 325 325 324 324 324 323 323 322 322 322 324 326 326 327 330 330 330 328 325 325 326 327 326 326 325 324 324 324 324
323 323 323 321 323 324 323 321 322 323 324 324 325 325 325 324 324 324 324 324 324 324 324 324 324 323 324 323 322 322 322 323 326 327 329 331 332 331 331 327 325 326 326 327 327 327 326 326 326
323 323 322 322 321 321 321 322 321 323 322 321 323 325 324 324 324 324 324 324 323 322 322 321 322 322 321 321 320 320 321 323 323 327 329 330 334 334 331 331 329 327 327 329 328 327 326 326 326
323 324 321 320 319 318 322 321 320 323 322 322 323 323 323 323 323 322 321 321 321 321 321 321 321 321 321 318 317 319 319 322 323 325 329 332 331 333 332 331 331 330 329 328 328 327 326 326 327
320 319 320 318 318 320 320 320 319 320 320 319 321 322 322 323 322 321 321 320 320 320 321 320 320 318 315 315 315 317 319 322 323 323 329 331 332 331 329 330 329 329 329 328 327 327 327 327 326
322 322 321 318 318 320 319 319 317 317 318 319 319 319 321 322 320 320 320 320 319 319 318 318 316 315 316 316 316 315 317 321 324 326 328 330 331 330 328 328 329 329 329 329 328 328 328 328 328
319 321 320 320 318 317 319 318 319 318 319 319 318 319 319 319 319 320 320 318 317 317 316 315 315 315 316 316 316 315 317 321 327 328 329 330 330 328 327 327 328 329 329 328 328 328 328 328 328
317 316 318 319 319 318 317 317 314 314 314 315 318 318 318 319 320 320 318 317 317 317 315 314 314 315 316 317 317 317 318 323 328 326 327 328 326 327 328 326 326 327 329 328 329 328 328 327 326
317 317 318 318 318 319 319 318 315 314 313 312 315 318 319 319 319 318 317 316 316 314 313 313 314 315 316 318 318 320 323 325 325 325 326 325 326 328 327 327 327 326 327 327 327 327 326 325 325
317 319 319 318 321 322 318 318 315 315 314 312 313 316 318 317 316 316 315 315 314 313 312 313 313 314 316 318 318 322 324 324 324 326 328 328 327 328 327 326 326 325 324 325 325 325 324 324 323
317 317 315 321 321 317 314 317 317 312 312 312 311 315 315 315 315 314 313 313 312 311 311 311 311 312 315 317 317 319 321 322 322 324 325 325 324 323 323 322 322 322 323 323 323 323 322 321 320
317 318 317 316 317 315 311 315 313 312 314 313 315 315 313 313 313 313 312 312 310 310 310 309 310 310 311 314 316 317 317 318 319 319 320 320 320 320 320 318 315 313 311 311 310 310 311 313 314
315 318 315 315 307 313 313 311 311 313 313 312 313 313 314 313 313 312 311 310 309 308 308 309 308 309 309 309 312 315 316 317 317 317 317 315 312 309 307 306 306 305 304 303 302 302 302 301 300
315 314 317 315 317 309 309 311 313 313 313 311 310 312 312 312 311 311 310 308 308 308 307 308 307 307 307 307 307 307 307 307 307 306 305 303 301 300 299 299 299 298 298 297 297 297 296 296 296
317 317 317 315 314 314 313 310 307 311 309 312 311 312 312 312 311 310 308 307 307 306 306 306 305 305 304 304 304 303 302 301 300 299 299 299 299 298 297 297 297 296 296 296 295 295 296 295 295
315 316 316 318 312 313 313 314 309 309 311 313 313 313 313 312 311 310 308 307 306 305 305 305 304 303 302 301 300 299 299 299 299 299 298 298 297 297 296 296 296 296 295 295 295 295 294 294 294
Wind_Speed
12 11 8 3 4 5 2 3 5 3 4 6 10 17 11 9 3 5 13 8 7 6 9 9 8 3 4 5 5 7 9 9 7 3 1 1 2 1 1 4 5 4 5 7 9 8 4 4 3
12 8 5 2 4 4 2 3 9 4 8 8 13 17 9 4 9 11 12 10 6 5 10 8 7 3 6 5 3 6 9 6 5 2 2 2 2 0 2 4 4 7 9 6 7 8 7 4 3
8 9 3 3 3 4 4 3 7 6 6 5 5 10 6 3 10 9 11 13 8 5 12 9 6 3 3 3 3 3 6 7 5 4 2 4 4 2 2 2 5 8 7 5 8 8 7 5 1
12 3 1 5 6 5 8 7 11 8 8 7 13 9 8 5 5 5 18 13 9 6 10 7 5 2 2 2 2 3 5 4 3 5 4 1 1 2 2 1 2 4 4 3 4 9 8 5 4
11 2 4 4 6 3 4 12 14 5 6 10 13 4 6 7 7 10 18 14 11 5 9 6 5 1 1 1 2 2 5 6 6 6 4 3 1 1 4 3 3 2 2 2 1 5 8 7 7
6 3 3 3 5 4 4 6 15 14 10 12 15 8 5 7 5 11 17 12 8 5 9 7 5 2 1 1 1 1 1 6 6 7 5 4 4 4 3 4 5 2 2 3 2 3 4 5 7
4 3 1 5 6 4 2 6 8 6 8 8 5 5 9 10 6 10 15 11 8 5 5 6 6 4 3 2 2 1 1 3 5 7 7 6 7 7 8 7 6 5 4 4 4 4 5 6 7
7 3 5 3 6 3 4 3 7 10 3 10 8 6 6 10 12 15 11 8 8 7 3 4 3 6 5 5 4 3 3 3 4 7 9 9 9 9 9 9 8 8 7 6 6 7 7 8 8
6 4 4 6 5 4 6 3 4 6 10 10 6 11 11 12 14 17 14 11 6 6 5 1 0 1 1 2 5 6 5 5 6 7 7 9 10 10 10 11 11 11 9 8 8 9 10 11 11
4 3 2 3 3 5 6 6 5 4 11 7 14 12 11 12 13 14 14 10 7 6 6 5 3 2 3 3 3 2 6 8 9 9 9 9 10 12 11 10 10 10 10 11 12 11 11 12 11
3 4 3 4 7 7 5 5 3 3 1 11 17 15 11 11 10 8 7 6 3 4 6 5 6 6 6 6 7 8 7 6 10 12 12 12 12 12 13 12 11 12 13 14 14 14 14 13 13
1 3 4 2 4 3 2 5 2 2 5 8 12 10 9 7 7 6 5 3 5 7 5 4 5 6 8 9 11 11 13 11 10 10 12 14 14 14 14 15 14 15 14 14 14 14 13 13 12
4 3 4 5 4 1 1 2 1 1 6 10 14 13 10 8 8 8 7 9 10 11 10 8 8 8 9 12 13 15 16 17 16 15 13 15 16 16 17 17 18 17 17 16 15 16 15 15 15
3 2 5 7 5 3 3 4 1 6 11 11 11 12 12 12 13 13 12 11 12 12 11 10 13 15 16 17 16 17 19 20 21 20 19 18 18 18 19 20 20 20 18 18 19 19 18 18 18
1 1 5 2 7 3 6 5 8 16 13 14 14 17 15 12 16 18 14 14 11 12 12 14 16 18 19 22 23 21 20 22 25 26 24 22 22 21 20 21 21 20 19 19 21 21 21 22 21
5 3 2 5 8 6 8 7 12 17 22 22 20 19 18 17 19 18 15 11 13 16 17 17 17 14 16 21 24 26 25 24 24 27 28 27 26 25 24 23 23 21 21 21 22 22 23 24 24
2 3 5 6 13 7 8 5 13 14 8 21 29 27 22 19 19 14 11 14 18 23 24 26 25 23 21 21 23 27 28 28 26 24 27 29 28 27 27 27 25 22 24 24 23 23 22 23 23
6 6 5 6 3 7 8 8 7 13 15 13 12 19 19 16 15 11 14 20 23 24 22 22 23 27 30 31 29 28 29 30 28 27 25 25 27 30 27 29 30 27 23 24 25 25 25 25 26
3 3 4 3 5 8 8 7 9 14 12 14 18 21 22 26 24 20 20 24 25 25 25 25 27 30 30 30 28 28 26 28 29 27 25 22 25 23 27 31 29 28 27 26 26 26 27 27 25
7 6 4 6 4 1 6 9 9 10 15 25 26 28 27 24 20 21 23 21 21 20 19 21 26 24 23 23 25 27 27 24 23 21 22 23 24 24 25 27 32 29 27 27 27 27 28 28 26
6 10 3 5 7 3 4 9 8 9 26 31 35 39 36 31 27 22 20 20 17 16 19 19 19 18 18 19 20 21 23 19 16 16 18 20 20 18 14 17 26 30 27 26 25 25 26 26 27
9 6 6 4 3 5 2 8 7 8 10 8 25 30 36 31 26 24 21 18 15 19 17 17 16 15 16 17 16 15 18 15 17 20 20 20 21 20 16 15 15 19 24 22 20 21 23 20 19
6 6 8 9 6 3 6 5 5 6 7 8 18 26 27 33 30 26 19 15 15 15 14 14 13 13 14 13 12 11 14 15 18 19 20 20 20 19 17 17 17 16 19 20 21 17 10 12 13
7 5 5 5 2 9 8 8 6 9 13 7 9 23 24 23 23 19 16 15 14 13 13 12 11 10 10 10 8 11 12 16 18 18 16 14 12 12 13 12 16 17 18 20 20 17 14 13 12
6 7 0 3 5 8 4 9 18 6 7 5 11 20 24 22 20 17 15 13 12 12 12 11 9 9 8 7 6 7 12 15 17 17 17 16 16 16 18 19 19 19 17 17 16 15 14 15 14
7 13 5 7 4 3 7 8 6 13 24 15 11 26 22 19 17 16 14 13 13 13 12 11 10 9 8 7 7 7 10 13 15 17 17 18 17 15 13 12 10 9 8 7 7 7 7 8 10
6 13 6 3 3 2 4 7 8 6 5 7 17 25 24 22 20 17 15 14 13 11 12 13 10 9 8 7 7 8 9 11 12 12 12 11 9 8 7 6 5 5 5 5 5 5 5 5 5
7 6 6 5 3 4 7 6 9 2 6 5 8 22 23 20 19 18 17 15 12 14 14 13 12 11 9 9 9 8 8 8 9 9 8 8 7 6 6 6 5 5 4 4 4 3 2 2 2
7 7 6 4 7 5 2 6 7 14 10 10 14 22 23 22 22 19 16 15 14 15 15 14 13 13 12 11 10 10 9 9 9 8 8 7 7 7 7 6 6 5 4 3 2 2 2 1 2
19 13 13 5 6 6 6 11 4 7 3 9 15 23 22 22 21 19 18 18 17 17 17 16 17 17 15 13 12 12 11 10 10 10 10 9 9 9 8 7 6 5 3 2 2 3 5 6 7
Wind_Direction
340 339 343 35 58 72 58 42 99 59 52 71 48 95 106 68 52 141 145 197 179 177 171 163 152 136 81 76 94 114 133 155 156 146 159 295 316 358 189 173 167 195 141 110 118 125 114 80 77
342 340 9 27 85 80 33 133 81 87 123 106 89 99 70 78 90 125 161 193 175 167 166 157 149 151 59 60 76 127 130 152 164 174 228 352 238 8 81 119 128 127 134 143 133 125 103 94 46
355 348 349 98 70 132 132 130 126 107 84 84 99 73 66 47 103 141 145 165 179 172 156 152 152 104 57 63 91 138 154 178 194 157 136 65 72 83 73 115 139 139 146 148 156 147 130 159 119
349 4 296 79 72 9 122 150 141 129 92 79 127 81 85 22 158 145 148 165 165 174 157 155 161 121 66 62 83 150 179 183 172 166 184 131 101 45 27 86 122 165 166 155 160 171 170 158 191
357 279 53 91 95 80 99 146 148 146 114 98 96 88 87 61 98 128 144 163 165 180 169 172 178 173 78 61 80 126 189 190 187 188 223 234 229 42 31 358 355 286 194 176 158 187 197 217 244
359 13 59 119 116 99 55 69 117 109 107 96 101 96 82 122 102 123 141 164 189 221 183 178 183 205 224 358 37 66 151 193 208 214 230 213 250 272 308 326 342 306 260 235 231 205 222 248 252
47 55 240 111 127 77 116 50 49 104 107 53 148 88 132 156 156 132 142 177 195 209 187 177 184 207 227 256 290 325 348 200 217 223 230 223 236 254 271 293 320 325 294 258 258 251 259 266 269
354 83 331 115 158 162 141 91 71 92 74 92 123 143 172 175 153 139 160 190 194 210 229 185 193 200 218 228 242 255 278 279 253 251 243 236 238 244 249 271 289 294 302 284 266 260 261 263 267
336 50 359 350 130 142 129 92 50 96 108 82 101 142 142 153 151 151 173 193 196 213 235 266 355 313 178 204 231 236 247 260 269 271 272 252 248 255 264 268 275 282 285 283 278 271 266 267 269
46 71 44 8 57 134 111 90 115 101 129 104 111 128 144 153 156 164 179 193 205 216 228 239 258 273 297 319 323 306 266 260 255 256 263 260 257 258 263 259 268 274 284 284 282 281 279 281 284
337 156 351 14 62 86 106 99 94 45 109 180 161 153 154 158 165 175 190 209 211 227 227 238 245 254 258 275 287 287 288 281 265 255 253 256 254 258 261 268 272 283 282 284 281 279 281 285 285
307 326 358 159 64 55 69 125 95 93 115 120 158 156 158 180 192 210 218 243 269 275 269 231 234 256 269 271 271 277 278 282 274 267 256 254 255 255 260 268 276 279 280 275 282 280 281 279 281
193 259 354 159 126 104 324 171 188 217 155 151 159 166 177 195 213 210 221 230 238 252 265 267 270 271 274 276 279 279 281 279 282 279 275 265 262 261 261 262 264 268 271 278 280 282 282 281 280
297 119 305 234 195 199 199 254 254 226 220 217 216 227 220 219 219 217 229 242 245 242 246 272 287 295 295 288 283 283 280 279 272 271 273 272 268 262 258 257 259 265 273 279 281 281 283 284 284
198 46 349 247 186 221 215 283 225 234 240 234 237 226 240 232 227 234 245 258 249 263 278 284 288 290 289 294 294 290 284 279 274 270 267 266 269 268 264 258 258 260 263 267 269 271 274 275 277
135 81 129 266 196 218 174 245 249 243 243 240 231 233 233 239 246 233 255 254 255 265 263 263 256 259 273 280 285 287 287 282 272 269 266 264 263 266 267 260 257 259 260 261 262 266 269 272 274
291 182 202 277 223 197 182 234 233 234 281 253 251 234 238 251 231 243 248 247 249 264 265 261 252 247 252 261 271 274 277 279 280 267 264 262 255 250 252 253 263 256 254 256 260 263 266 269 271
198 209 230 210 264 205 226 238 252 241 271 266 257 233 231 236 227 242 268 268 271 268 249 248 255 262 270 273 267 263 268 272 274 274 267 263 257 246 250 254 258 259 254 254 253 257 264 269 276
196 204 211 279 291 223 225 231 238 246 262 266 259 246 246 249 255 270 263 268 265 253 253 258 265 274 274 270 265 261 257 265 272 274 271 263 257 261 249 252 258 259 259 258 261 264 266 270 276
234 257 263 287 260 235 280 267 258 254 259 259 261 256 250 246 245 247 257 258 240 246 259 272 282 280 278 275 266 256 255 261 268 272 270 264 262 277 266 251 251 259 259 259 260 264 268 269 273
215 224 204 235 311 266 321 276 253 247 249 252 249 250 252 250 250 246 242 239 244 265 278 276 276 279 281 282 278 258 249 251 257 260 258 257 260 268 268 255 251 253 262 262 264 265 267 272 271
226 185 214 249 302 255 94 282 265 283 271 259 244 236 241 242 235 235 235 235 249 269 266 274 279 283 289 289 281 265 243 240 236 247 248 250 254 251 249 251 251 250 252 261 265 268 269 273 278
227 174 220 216 213 261 256 294 282 253 295 256 238 239 236 235 234 227 225 234 249 259 273 279 280 290 294 290 274 247 230 231 242 244 248 241 240 235 245 249 252 241 240 247 245 246 257 271 285
153 94 48 42 82 249 221 214 221 236 243 253 232 231 224 202 192 204 218 235 247 265 272 267 272 281 288 288 265 221 218 230 236 231 216 218 221 221 234 258 257 267 266 264 266 272 262 262 274
151 122 328 208 212 238 212 205 246 258 261 236 222 181 185 186 191 200 216 233 251 263 253 258 265 271 271 272 270 226 222 230 236 238 241 243 249 255 262 262 264 264 260 256 259 255 262 260 264
182 179 166 197 213 239 189 234 247 222 243 235 255 187 176 181 194 208 221 242 256 247 245 250 254 258 259 255 245 230 220 231 239 248 252 255 255 254 251 250 245 242 245 250 253 258 260 259 260
200 207 177 59 12 62 236 293 303 213 220 170 172 176 189 195 204 213 230 245 239 239 241 247 253 255 246 239 234 229 225 223 225 227 228 228 223 220 216 220 222 228 234 237 233 241 250 257 264
177 143 186 207 213 250 245 244 236 358 241 215 198 200 199 198 207 219 230 235 235 234 237 242 243 242 238 230 219 210 204 200 200 198 197 195 196 198 206 217 226 235 238 240 246 257 260 277 300
175 188 210 182 202 206 250 249 219 228 238 215 225 219 208 213 218 220 228 235 237 235 234 238 238 238 231 221 212 205 198 194 193 195 202 209 217 223 229 239 242 237 228 222 198 146 116 94 72
209 193 188 195 219 236 270 260 165 140 120 199 242 228 220 232 227 228 233 235 236 237 236 239 238 236 228 222 214 210 208 207 210 216 222 223 225 228 232 233 235 240 229 188 139 93 75 70 60